Time,TemperatureF,DewpointF,PressureIn,WindDirection,WindDirectionDegrees,WindSpeedMPH,WindSpeedGustMPH,Humidity,HourlyPrecipIn,Conditions,Clouds,dailyrainin,SolarRadiationWatts/m^2,SoftwareType,DateUTC
2013-09-14 00:03:00,79.7,61.0,29.81,ENE,65,2.0,3.0,53,0.00,,,0.00,0.0,meteohub,2013-09-14 07:03:00,
2013-09-14 00:08:00,79.9,61.2,29.81,ESE,111,2.0,5.0,53,0.00,,,0.00,0.0,meteohub,2013-09-14 07:08:00,
2013-09-14 00:13:00,80.1,60.8,29.80,ESE,105,2.0,5.0,52,0.00,,,0.00,0.0,meteohub,2013-09-14 07:13:00,
2013-09-14 00:18:00,80.2,61.0,29.80,ESE,117,4.0,6.0,52,0.00,,,0.00,0.0,meteohub,2013-09-14 07:18:00,
2013-09-14 00:23:00,80.2,61.0,29.80,ESE,107,5.0,7.0,52,0.00,,,0.00,0.0,meteohub,2013-09-14 07:23:00,
2013-09-14 00:28:00,80.2,60.4,29.80,ESE,111,3.0,8.0,51,0.00,,,0.00,0.0,meteohub,2013-09-14 07:28:00,
2013-09-14 00:33:00,80.2,60.4,29.80,ESE,111,2.0,8.0,51,0.00,,,0.00,0.0,meteohub,2013-09-14 07:33:00,
2013-09-14 00:38:00,80.2,60.4,29.80,ESE,104,3.0,8.0,51,0.00,,,0.00,0.0,meteohub,2013-09-14 07:38:00,
2013-09-14 00:43:00,80.2,60.4,29.80,ENE,74,4.0,8.0,51,0.00,,,0.00,0.0,meteohub,2013-09-14 07:43:00,
2013-09-14 00:48:00,80.2,60.4,29.80,East,86,7.0,8.0,51,0.00,,,0.00,0.0,meteohub,2013-09-14 07:48:00,
2013-09-14 00:53:00,80.2,60.4,29.80,East,98,2.0,8.0,51,0.00,,,0.00,0.0,meteohub,2013-09-14 07:53:00,
2013-09-14 00:58:00,80.2,60.4,29.80,East,89,2.0,11.0,51,0.00,,,0.00,0.0,meteohub,2013-09-14 07:58:00,
2013-09-14 01:03:00,80.2,60.4,29.80,NE,51,2.0,11.0,51,0.00,,,0.00,0.0,meteohub,2013-09-14 08:03:00,
2013-09-14 01:08:00,80.2,60.4,29.80,East,92,5.0,7.0,51,0.00,,,0.00,0.0,meteohub,2013-09-14 08:08:00,
2013-09-14 01:13:00,80.2,60.4,29.80,East,92,7.0,8.0,51,0.00,,,0.00,0.0,meteohub,2013-09-14 08:13:00,
2013-09-14 01:18:00,80.2,61.0,29.80,ENE,77,5.0,9.0,52,0.00,,,0.00,0.0,meteohub,2013-09-14 08:18:00,
2013-09-14 01:23:00,80.1,60.8,29.80,East,80,5.0,9.0,52,0.00,,,0.00,0.0,meteohub,2013-09-14 08:23:00,
2013-09-14 01:28:00,80.1,60.8,29.80,East,91,2.0,9.0,52,0.00,,,0.00,0.0,meteohub,2013-09-14 08:28:00,
2013-09-14 01:33:00,79.9,61.2,29.80,ESE,120,2.0,9.0,53,0.00,,,0.00,0.0,meteohub,2013-09-14 08:33:00,
2013-09-14 01:38:00,79.7,61.0,29.80,East,98,7.0,9.0,53,0.00,,,0.00,0.0,meteohub,2013-09-14 08:38:00,
2013-09-14 01:43:00,79.5,61.3,29.80,ENE,75,3.0,9.0,54,0.00,,,0.00,0.0,meteohub,2013-09-14 08:43:00,
2013-09-14 01:48:00,79.3,61.2,29.80,ENE,64,8.0,9.0,54,0.00,,,0.00,0.0,meteohub,2013-09-14 08:48:00,
2013-09-14 01:53:00,79.2,61.2,29.80,ESE,111,3.0,9.0,54,0.00,,,0.00,0.0,meteohub,2013-09-14 08:53:00,
2013-09-14 01:58:00,79.2,61.5,29.80,ESE,112,5.0,9.0,55,0.00,,,0.00,0.0,meteohub,2013-09-14 08:58:00,
2013-09-14 02:03:00,79.2,61.5,29.80,ESE,108,3.0,9.0,55,0.00,,,0.00,0.0,meteohub,2013-09-14 09:03:00,
2013-09-14 02:08:00,79.2,61.5,29.80,SE,134,4.0,9.0,55,0.00,,,0.00,0.0,meteohub,2013-09-14 09:08:00,
2013-09-14 02:13:00,79.0,61.5,29.80,East,101,5.0,9.0,55,0.00,,,0.00,0.0,meteohub,2013-09-14 09:13:00,
2013-09-14 02:18:00,79.0,61.5,29.80,East,98,6.0,10.0,55,0.00,,,0.00,0.0,meteohub,2013-09-14 09:18:00,
2013-09-14 02:23:00,79.0,61.5,29.80,East,87,6.0,11.0,55,0.00,,,0.00,0.0,meteohub,2013-09-14 09:23:00,
2013-09-14 02:28:00,78.6,61.5,29.80,ESE,123,2.0,11.0,56,0.00,,,0.00,0.0,meteohub,2013-09-14 09:28:00,
2013-09-14 02:33:00,78.6,61.5,29.80,ESE,115,4.0,11.0,56,0.00,,,0.00,0.0,meteohub,2013-09-14 09:33:00,
2013-09-14 02:38:00,78.6,61.5,29.79,ENE,58,5.0,10.0,56,0.00,,,0.00,0.0,meteohub,2013-09-14 09:38:00,
2013-09-14 02:43:00,78.6,61.5,29.79,ENE,58,7.0,10.0,56,0.00,,,0.00,0.0,meteohub,2013-09-14 09:43:00,
2013-09-14 02:49:00,78.4,61.5,29.79,East,79,2.0,11.0,56,0.00,,,0.00,0.0,meteohub,2013-09-14 09:49:00,
2013-09-14 02:54:00,78.4,61.0,29.79,East,87,3.0,11.0,55,0.00,,,0.00,0.0,meteohub,2013-09-14 09:54:00,
2013-09-14 02:59:00,78.4,61.5,29.79,East,98,1.0,11.0,56,0.00,,,0.00,0.0,meteohub,2013-09-14 09:59:00,
2013-09-14 03:04:00,78.4,61.5,29.79,East,92,7.0,11.0,56,0.00,,,0.00,0.0,meteohub,2013-09-14 10:04:00,
2013-09-14 03:09:00,78.3,61.3,29.79,East,85,6.0,13.0,56,0.00,,,0.00,0.0,meteohub,2013-09-14 10:09:00,
2013-09-14 03:14:00,78.1,61.2,29.79,ENE,63,4.0,13.0,56,0.00,,,0.00,0.0,meteohub,2013-09-14 10:14:00,
2013-09-14 03:19:00,77.9,61.5,29.79,ENE,67,3.0,13.0,57,0.00,,,0.00,0.0,meteohub,2013-09-14 10:19:00,
2013-09-14 03:24:00,77.7,61.7,29.79,East,87,1.0,8.0,58,0.00,,,0.00,0.0,meteohub,2013-09-14 10:24:00,
2013-09-14 03:29:00,77.5,61.5,29.80,East,98,1.0,8.0,58,0.00,,,0.00,0.0,meteohub,2013-09-14 10:29:00,
2013-09-14 03:34:00,77.4,61.3,29.79,East,88,2.0,7.0,58,0.00,,,0.00,0.0,meteohub,2013-09-14 10:34:00,
2013-09-14 03:39:00,77.2,61.3,29.79,East,88,1.0,7.0,58,0.00,,,0.00,0.0,meteohub,2013-09-14 10:39:00,
2013-09-14 03:44:00,76.6,61.2,29.79,East,87,0.0,7.0,59,0.00,,,0.00,0.0,meteohub,2013-09-14 10:44:00,
2013-09-14 03:49:00,76.3,61.3,29.80,East,88,1.0,5.0,60,0.00,,,0.00,0.0,meteohub,2013-09-14 10:49:00,
2013-09-14 03:54:00,75.7,60.8,29.80,East,88,1.0,5.0,60,0.00,,,0.00,0.0,meteohub,2013-09-14 10:54:00,
2013-09-14 03:59:00,75.6,61.2,29.80,East,88,0.0,3.0,61,0.00,,,0.00,0.0,meteohub,2013-09-14 10:59:00,
2013-09-14 04:04:00,75.2,61.7,29.80,East,88,0.0,3.0,63,0.00,,,0.00,0.0,meteohub,2013-09-14 11:04:00,
2013-09-14 04:09:00,74.7,61.7,29.80,East,88,1.0,1.0,64,0.00,,,0.00,0.0,meteohub,2013-09-14 11:09:00,
2013-09-14 04:14:00,74.1,62.1,29.80,East,87,0.0,1.0,66,0.00,,,0.00,0.0,meteohub,2013-09-14 11:14:00,
2013-09-14 04:19:00,73.8,61.7,29.80,East,88,0.0,1.0,66,0.00,,,0.00,0.0,meteohub,2013-09-14 11:19:00,
2013-09-14 04:24:00,73.2,62.1,29.80,East,87,0.0,1.0,68,0.00,,,0.00,0.0,meteohub,2013-09-14 11:24:00,
2013-09-14 04:29:00,72.9,62.1,29.80,East,87,0.0,1.0,69,0.00,,,0.00,0.0,meteohub,2013-09-14 11:29:00,
2013-09-14 04:34:00,72.5,62.2,29.80,East,87,0.0,1.0,70,0.00,,,0.00,0.0,meteohub,2013-09-14 11:34:00,
2013-09-14 04:39:00,72.1,62.2,29.79,East,88,0.0,1.0,71,0.00,,,0.00,0.0,meteohub,2013-09-14 11:39:00,
2013-09-14 04:44:00,72.0,62.4,29.79,East,88,0.0,0.0,72,0.00,,,0.00,0.0,meteohub,2013-09-14 11:44:00,
2013-09-14 04:49:00,71.6,62.4,29.80,East,88,0.0,0.0,73,0.00,,,0.00,0.0,meteohub,2013-09-14 11:49:00,
2013-09-14 04:54:00,71.2,62.1,29.80,East,88,1.0,0.0,73,0.00,,,0.00,0.0,meteohub,2013-09-14 11:54:00,
2013-09-14 04:59:00,70.9,62.2,29.80,East,88,0.0,1.0,74,0.00,,,0.00,0.0,meteohub,2013-09-14 11:59:00,
2013-09-14 05:05:00,70.5,62.2,29.80,East,87,2.0,2.0,75,0.00,,,0.00,0.0,meteohub,2013-09-14 12:05:00,
2013-09-14 05:10:00,70.3,62.1,29.80,East,88,0.0,2.0,75,0.00,,,0.00,0.0,meteohub,2013-09-14 12:10:00,
2013-09-14 05:15:00,70.2,62.2,29.80,East,88,0.0,2.0,76,0.00,,,0.00,0.0,meteohub,2013-09-14 12:15:00,
2013-09-14 05:20:00,70.0,62.1,29.80,East,87,1.0,2.0,76,0.00,,,0.00,0.0,meteohub,2013-09-14 12:20:00,
2013-09-14 05:25:00,69.8,61.9,29.80,East,87,1.0,1.0,76,0.00,,,0.00,0.0,meteohub,2013-09-14 12:25:00,
2013-09-14 05:30:00,70.0,61.7,29.80,East,87,1.0,3.0,75,0.00,,,0.00,0.0,meteohub,2013-09-14 12:30:00,
2013-09-14 05:35:00,69.8,61.5,29.80,East,88,0.0,3.0,75,0.00,,,0.00,0.0,meteohub,2013-09-14 12:35:00,
2013-09-14 05:40:00,69.6,61.3,29.81,East,88,1.0,2.0,75,0.00,,,0.00,0.0,meteohub,2013-09-14 12:40:00,
2013-09-14 05:45:00,69.4,61.5,29.81,East,87,1.0,2.0,76,0.00,,,0.00,0.0,meteohub,2013-09-14 12:45:00,
2013-09-14 05:50:00,69.3,61.7,29.81,East,87,0.0,1.0,77,0.00,,,0.00,0.0,meteohub,2013-09-14 12:50:00,
2013-09-14 05:55:00,69.3,62.1,29.81,East,88,0.0,1.0,78,0.00,,,0.00,0.0,meteohub,2013-09-14 12:55:00,
2013-09-14 06:00:00,69.1,61.9,29.81,East,88,0.0,1.0,78,0.00,,,0.00,0.0,meteohub,2013-09-14 13:00:00,
2013-09-14 06:05:00,68.9,62.1,29.81,East,87,0.0,1.0,79,0.00,,,0.00,5.0,meteohub,2013-09-14 13:05:00,
2013-09-14 06:10:00,68.7,61.9,29.81,East,88,0.0,1.0,79,0.00,,,0.00,7.0,meteohub,2013-09-14 13:10:00,
2013-09-14 06:15:00,68.7,61.9,29.81,East,87,0.0,1.0,79,0.00,,,0.00,9.0,meteohub,2013-09-14 13:15:00,
2013-09-14 06:20:00,68.5,61.7,29.81,East,87,0.0,1.0,79,0.00,,,0.00,12.0,meteohub,2013-09-14 13:20:00,
2013-09-14 06:25:00,68.5,62.1,29.81,East,87,1.0,2.0,80,0.00,,,0.00,14.0,meteohub,2013-09-14 13:25:00,
2013-09-14 06:30:00,68.7,62.2,29.82,East,87,0.0,2.0,80,0.00,,,0.00,19.0,meteohub,2013-09-14 13:30:00,
2013-09-14 06:35:00,69.1,63.0,29.82,East,88,1.0,2.0,81,0.00,,,0.00,35.0,meteohub,2013-09-14 13:35:00,
2013-09-14 06:40:00,69.4,62.6,29.82,East,88,0.0,2.0,79,0.00,,,0.00,49.0,meteohub,2013-09-14 13:40:00,
2013-09-14 06:45:00,70.3,62.4,29.82,East,88,0.0,2.0,76,0.00,,,0.00,63.0,meteohub,2013-09-14 13:45:00,
2013-09-14 06:50:00,71.2,62.1,29.83,East,88,1.0,2.0,73,0.00,,,0.00,83.0,meteohub,2013-09-14 13:50:00,
2013-09-14 06:55:00,72.3,63.1,29.83,East,88,1.0,2.0,73,0.00,,,0.00,102.0,meteohub,2013-09-14 13:55:00,
2013-09-14 07:00:00,73.2,62.8,29.83,East,88,0.0,2.0,70,0.00,,,0.00,120.0,meteohub,2013-09-14 14:00:00,
2013-09-14 07:05:00,74.1,63.0,29.83,East,88,0.0,1.0,68,0.00,,,0.00,142.0,meteohub,2013-09-14 14:05:00,
2013-09-14 07:11:00,75.2,62.2,29.83,East,88,2.0,2.0,64,0.00,,,0.00,163.0,meteohub,2013-09-14 14:11:00,
2013-09-14 07:16:00,76.5,63.0,29.83,East,88,1.0,3.0,63,0.00,,,0.00,185.0,meteohub,2013-09-14 14:16:00,
2013-09-14 07:21:00,77.5,63.5,29.83,East,88,1.0,3.0,62,0.00,,,0.00,200.0,meteohub,2013-09-14 14:21:00,
2013-09-14 07:26:00,78.3,62.8,29.83,ENE,67,1.0,3.0,59,0.00,,,0.00,206.0,meteohub,2013-09-14 14:26:00,
2013-09-14 07:31:00,79.0,62.4,29.83,ENE,67,1.0,4.0,57,0.00,,,0.00,236.0,meteohub,2013-09-14 14:31:00,
2013-09-14 07:36:00,79.5,63.0,29.83,ENE,67,3.0,4.0,57,0.00,,,0.00,250.0,meteohub,2013-09-14 14:36:00,
2013-09-14 07:41:00,80.2,63.1,29.83,ENE,68,1.0,5.0,56,0.00,,,0.00,274.0,meteohub,2013-09-14 14:41:00,
2013-09-14 07:46:00,80.8,63.1,29.83,ENE,68,1.0,5.0,55,0.00,,,0.00,294.0,meteohub,2013-09-14 14:46:00,
2013-09-14 07:51:00,81.1,63.0,29.83,ENE,60,3.0,7.0,54,0.00,,,0.00,308.0,meteohub,2013-09-14 14:51:00,
2013-09-14 07:56:00,81.9,63.0,29.83,East,80,3.0,7.0,53,0.00,,,0.00,327.0,meteohub,2013-09-14 14:56:00,
2013-09-14 08:01:00,82.2,63.3,29.83,West,274,3.0,7.0,53,0.00,,,0.00,343.0,meteohub,2013-09-14 15:01:00,
2013-09-14 08:06:00,82.4,63.0,29.83,East,94,2.0,7.0,52,0.00,,,0.00,362.0,meteohub,2013-09-14 15:06:00,
2013-09-14 08:11:00,82.9,62.4,29.83,ENE,61,7.0,8.0,50,0.00,,,0.00,380.0,meteohub,2013-09-14 15:11:00,
2013-09-14 08:16:00,83.3,62.8,29.83,ENE,70,4.0,10.0,50,0.00,,,0.00,399.0,meteohub,2013-09-14 15:16:00,
2013-09-14 08:21:00,83.5,63.0,29.83,ESE,104,2.0,11.0,50,0.00,,,0.00,417.0,meteohub,2013-09-14 15:21:00,
2013-09-14 08:26:00,83.7,62.4,29.83,SE,125,4.0,14.0,49,0.00,,,0.00,429.0,meteohub,2013-09-14 15:26:00,
2013-09-14 08:31:00,83.8,62.6,29.83,ESE,106,7.0,14.0,49,0.00,,,0.00,448.0,meteohub,2013-09-14 15:31:00,
2013-09-14 08:36:00,84.0,62.8,29.83,East,94,8.0,14.0,49,0.00,,,0.00,466.0,meteohub,2013-09-14 15:36:00,
2013-09-14 08:41:00,84.0,62.2,29.83,SE,137,6.0,13.0,48,0.00,,,0.00,482.0,meteohub,2013-09-14 15:41:00,
2013-09-14 08:46:00,84.4,62.6,29.83,East,91,9.0,13.0,48,0.00,,,0.00,490.0,meteohub,2013-09-14 15:46:00,
2013-09-14 08:51:00,84.0,62.2,29.83,ESE,119,5.0,13.0,48,0.00,,,0.00,88.0,meteohub,2013-09-14 15:51:00,
2013-09-14 08:56:00,84.4,62.6,29.84,ESE,105,4.0,13.0,48,0.00,,,0.00,538.0,meteohub,2013-09-14 15:56:00,
2013-09-14 09:01:00,84.7,63.0,29.84,ESE,103,2.0,13.0,48,0.00,,,0.00,550.0,meteohub,2013-09-14 16:01:00,
2013-09-14 09:06:00,85.3,62.2,29.84,East,82,9.0,13.0,46,0.00,,,0.00,566.0,meteohub,2013-09-14 16:06:00,
2013-09-14 09:11:00,85.3,62.8,29.84,ESE,109,5.0,15.0,47,0.00,,,0.00,577.0,meteohub,2013-09-14 16:11:00,
2013-09-14 09:16:00,85.6,62.4,29.84,ESE,102,10.0,15.0,46,0.00,,,0.00,591.0,meteohub,2013-09-14 16:16:00,
2013-09-14 09:21:00,85.6,62.4,29.84,SE,130,4.0,15.0,46,0.00,,,0.00,608.0,meteohub,2013-09-14 16:21:00,
2013-09-14 09:26:00,86.0,62.2,29.84,ESE,109,7.0,15.0,45,0.00,,,0.00,624.0,meteohub,2013-09-14 16:26:00,
2013-09-14 09:31:00,86.2,62.4,29.84,East,84,6.0,15.0,45,0.00,,,0.00,636.0,meteohub,2013-09-14 16:31:00,
2013-09-14 09:36:00,86.5,62.6,29.84,ESE,111,5.0,13.0,45,0.00,,,0.00,652.0,meteohub,2013-09-14 16:36:00,
2013-09-14 09:41:00,87.1,62.6,29.85,ESE,102,5.0,13.0,44,0.00,,,0.00,668.0,meteohub,2013-09-14 16:41:00,
2013-09-14 09:46:00,87.3,62.6,29.85,East,101,5.0,11.0,44,0.00,,,0.00,680.0,meteohub,2013-09-14 16:46:00,
2013-09-14 09:51:00,87.6,63.0,29.85,ENE,67,5.0,11.0,44,0.00,,,0.00,698.0,meteohub,2013-09-14 16:51:00,
2013-09-14 09:56:00,87.8,61.9,29.85,ESE,115,7.0,11.0,42,0.00,,,0.00,710.0,meteohub,2013-09-14 16:56:00,
2013-09-14 10:01:00,88.2,61.5,29.84,East,100,8.0,13.0,41,0.00,,,0.00,737.0,meteohub,2013-09-14 17:01:00,
2013-09-14 10:06:00,88.3,61.0,29.84,ESE,107,4.0,13.0,40,0.00,,,0.00,756.0,meteohub,2013-09-14 17:06:00,
2013-09-14 10:11:00,88.9,62.1,29.84,ENE,71,3.0,13.0,41,0.00,,,0.00,770.0,meteohub,2013-09-14 17:11:00,
2013-09-14 10:16:00,89.2,61.7,29.84,East,88,6.0,13.0,40,0.00,,,0.00,759.0,meteohub,2013-09-14 17:16:00,
2013-09-14 10:21:00,89.8,62.2,29.84,ESE,112,4.0,8.0,40,0.00,,,0.00,766.0,meteohub,2013-09-14 17:21:00,
2013-09-14 10:26:00,90.0,61.0,29.84,ESE,105,4.0,8.0,38,0.00,,,0.00,772.0,meteohub,2013-09-14 17:26:00,
2013-09-14 10:31:00,90.3,61.3,29.84,ENE,66,1.0,8.0,38,0.00,,,0.00,780.0,meteohub,2013-09-14 17:31:00,
2013-09-14 10:36:00,90.5,60.6,29.83,East,90,2.0,8.0,37,0.00,,,0.00,793.0,meteohub,2013-09-14 17:36:00,
2013-09-14 10:41:00,90.9,61.0,29.83,ENE,74,0.0,8.0,37,0.00,,,0.00,802.0,meteohub,2013-09-14 17:41:00,
2013-09-14 10:46:00,91.2,60.6,29.83,ESE,102,1.0,8.0,36,0.00,,,0.00,812.0,meteohub,2013-09-14 17:46:00,
2013-09-14 10:51:00,91.6,60.8,29.83,ENE,59,1.0,8.0,36,0.00,,,0.00,819.0,meteohub,2013-09-14 17:51:00,
2013-09-14 10:56:00,91.9,59.5,29.83,ESE,103,2.0,7.0,34,0.00,,,0.00,830.0,meteohub,2013-09-14 17:56:00,
2013-09-14 11:01:00,91.9,61.2,29.83,ENE,63,1.0,8.0,36,0.00,,,0.00,838.0,meteohub,2013-09-14 18:01:00,
2013-09-14 11:06:00,91.9,61.2,29.83,East,92,2.0,8.0,36,0.00,,,0.00,846.0,meteohub,2013-09-14 18:06:00,
2013-09-14 11:11:00,91.6,60.8,29.83,ENE,75,2.0,8.0,36,0.00,,,0.00,849.0,meteohub,2013-09-14 18:11:00,
2013-09-14 11:16:00,91.9,61.2,29.83,SSW,203,2.0,6.0,36,0.00,,,0.00,854.0,meteohub,2013-09-14 18:16:00,
2013-09-14 11:21:00,92.7,61.9,29.83,East,93,2.0,5.0,36,0.00,,,0.00,861.0,meteohub,2013-09-14 18:21:00,
2013-09-14 11:26:00,93.4,61.7,29.82,NE,52,1.0,7.0,35,0.00,,,0.00,867.0,meteohub,2013-09-14 18:26:00,
2013-09-14 11:31:00,94.1,61.5,29.82,ESE,116,2.0,7.0,34,0.00,,,0.00,875.0,meteohub,2013-09-14 18:31:00,
2013-09-14 11:36:00,94.5,61.0,29.82,SW,220,4.0,7.0,33,0.00,,,0.00,886.0,meteohub,2013-09-14 18:36:00,
2013-09-14 11:41:00,94.5,61.7,29.82,SE,142,1.0,5.0,34,0.00,,,0.00,891.0,meteohub,2013-09-14 18:41:00,
2013-09-14 11:46:00,94.6,61.0,29.81,ENE,57,1.0,5.0,33,0.00,,,0.00,900.0,meteohub,2013-09-14 18:46:00,
2013-09-14 11:52:00,95.0,59.5,29.81,South,180,2.0,5.0,31,0.00,,,0.00,907.0,meteohub,2013-09-14 18:52:00,
2013-09-14 11:57:00,95.0,59.5,29.81,WNW,288,1.0,5.0,31,0.00,,,0.00,918.0,meteohub,2013-09-14 18:57:00,
2013-09-14 12:02:00,95.0,59.5,29.81,SSW,196,2.0,5.0,31,0.00,,,0.00,937.0,meteohub,2013-09-14 19:02:00,
2013-09-14 12:07:00,95.2,59.7,29.81,West,265,4.0,5.0,31,0.00,,,0.00,939.0,meteohub,2013-09-14 19:07:00,
2013-09-14 12:12:00,94.8,59.5,29.81,SSW,209,1.0,8.0,31,0.00,,,0.00,942.0,meteohub,2013-09-14 19:12:00,
2013-09-14 12:17:00,95.2,57.0,29.81,WSW,250,3.0,8.0,28,0.00,,,0.00,944.0,meteohub,2013-09-14 19:17:00,
2013-09-14 12:22:00,95.4,55.0,29.80,SSW,207,3.0,8.0,26,0.00,,,0.00,972.0,meteohub,2013-09-14 19:22:00,
2013-09-14 12:27:00,95.5,54.1,29.80,WSW,252,4.0,7.0,25,0.00,,,0.00,1009.0,meteohub,2013-09-14 19:27:00,
2013-09-14 12:32:00,96.1,51.1,29.80,West,278,1.0,7.0,22,0.00,,,0.00,998.0,meteohub,2013-09-14 19:32:00,
2013-09-14 12:37:00,96.4,50.2,29.80,SW,223,2.0,7.0,21,0.00,,,0.00,984.0,meteohub,2013-09-14 19:37:00,
2013-09-14 12:42:00,96.4,52.5,29.80,SE,140,4.0,7.0,23,0.00,,,0.00,993.0,meteohub,2013-09-14 19:42:00,
2013-09-14 12:47:00,97.0,47.8,29.80,SW,229,3.0,7.0,19,0.00,,,0.00,993.0,meteohub,2013-09-14 19:47:00,
2013-09-14 12:52:00,97.0,50.5,29.79,South,188,2.0,7.0,21,0.00,,,0.00,991.0,meteohub,2013-09-14 19:52:00,
2013-09-14 12:57:00,97.2,49.5,29.79,WSW,245,2.0,7.0,20,0.00,,,0.00,946.0,meteohub,2013-09-14 19:57:00,
2013-09-14 13:02:00,97.2,50.7,29.79,SSW,194,2.0,7.0,21,0.00,,,0.00,944.0,meteohub,2013-09-14 20:02:00,
2013-09-14 13:07:00,97.5,52.3,29.79,SE,138,6.0,7.0,22,0.00,,,0.00,930.0,meteohub,2013-09-14 20:07:00,
2013-09-14 13:12:00,97.5,51.1,29.78,SE,137,3.0,9.0,21,0.00,,,0.00,919.0,meteohub,2013-09-14 20:12:00,
2013-09-14 13:17:00,97.3,53.4,29.78,SW,227,2.0,9.0,23,0.00,,,0.00,925.0,meteohub,2013-09-14 20:17:00,
2013-09-14 13:22:00,97.3,52.2,29.78,SSW,199,3.0,7.0,22,0.00,,,0.00,928.0,meteohub,2013-09-14 20:22:00,
2013-09-14 13:27:00,97.2,52.0,29.78,SW,224,2.0,6.0,22,0.00,,,0.00,921.0,meteohub,2013-09-14 20:27:00,
2013-09-14 13:32:00,97.3,52.2,29.78,SW,232,3.0,6.0,22,0.00,,,0.00,911.0,meteohub,2013-09-14 20:32:00,
2013-09-14 13:37:00,97.5,52.3,29.78,SW,215,2.0,6.0,22,0.00,,,0.00,891.0,meteohub,2013-09-14 20:37:00,
2013-09-14 13:42:00,97.5,52.3,29.77,WSW,256,3.0,6.0,22,0.00,,,0.00,905.0,meteohub,2013-09-14 20:42:00,
2013-09-14 13:47:00,97.2,53.2,29.77,SSW,211,2.0,6.0,23,0.00,,,0.00,109.0,meteohub,2013-09-14 20:47:00,
2013-09-14 13:52:00,96.6,52.7,29.77,West,259,3.0,4.0,23,0.00,,,0.00,904.0,meteohub,2013-09-14 20:52:00,
2013-09-14 13:57:00,96.6,52.7,29.76,West,265,2.0,5.0,23,0.00,,,0.00,882.0,meteohub,2013-09-14 20:57:00,
2013-09-14 14:02:00,97.0,51.8,29.76,NW,315,3.0,5.0,22,0.00,,,0.00,884.0,meteohub,2013-09-14 21:02:00,
2013-09-14 14:07:00,97.0,51.8,29.76,West,261,4.0,6.0,22,0.00,,,0.00,780.0,meteohub,2013-09-14 21:07:00,
2013-09-14 14:12:00,97.0,50.5,29.76,NW,308,0.0,6.0,21,0.00,,,0.00,846.0,meteohub,2013-09-14 21:12:00,
2013-09-14 14:17:00,97.0,50.5,29.76,WSW,240,1.0,6.0,21,0.00,,,0.00,840.0,meteohub,2013-09-14 21:17:00,
2013-09-14 14:22:00,97.2,50.7,29.75,NW,311,1.0,6.0,21,0.00,,,0.00,846.0,meteohub,2013-09-14 21:22:00,
2013-09-14 14:27:00,97.5,52.3,29.75,ENE,74,1.0,6.0,22,0.00,,,0.00,817.0,meteohub,2013-09-14 21:27:00,
2013-09-14 14:32:00,98.1,50.2,29.75,West,280,3.0,6.0,20,0.00,,,0.00,803.0,meteohub,2013-09-14 21:32:00,
2013-09-14 14:37:00,98.2,50.4,29.75,WSW,257,1.0,7.0,20,0.00,,,0.00,788.0,meteohub,2013-09-14 21:37:00,
2013-09-14 14:42:00,98.4,50.4,29.75,SW,227,2.0,7.0,20,0.00,,,0.00,779.0,meteohub,2013-09-14 21:42:00,
2013-09-14 14:47:00,98.8,50.7,29.75,SW,220,2.0,7.0,20,0.00,,,0.00,765.0,meteohub,2013-09-14 21:47:00,
2013-09-14 14:52:00,98.4,49.1,29.75,WSW,238,3.0,9.0,19,0.00,,,0.00,747.0,meteohub,2013-09-14 21:52:00,
2013-09-14 14:57:00,97.9,48.6,29.75,SE,136,2.0,9.0,19,0.00,,,0.00,731.0,meteohub,2013-09-14 21:57:00,
2013-09-14 15:02:00,97.9,48.6,29.75,WSW,245,1.0,9.0,19,0.00,,,0.00,705.0,meteohub,2013-09-14 22:02:00,
2013-09-14 15:07:00,98.2,48.9,29.75,NNW,339,1.0,9.0,19,0.00,,,0.00,687.0,meteohub,2013-09-14 22:07:00,
2013-09-14 15:12:00,98.8,49.3,29.75,WNW,290,2.0,7.0,19,0.00,,,0.00,670.0,meteohub,2013-09-14 22:12:00,
2013-09-14 15:17:00,98.8,49.3,29.74,NW,311,3.0,5.0,19,0.00,,,0.00,654.0,meteohub,2013-09-14 22:17:00,
2013-09-14 15:22:00,98.8,47.8,29.74,SSW,206,4.0,6.0,18,0.00,,,0.00,636.0,meteohub,2013-09-14 22:22:00,
2013-09-14 15:27:00,98.8,47.8,29.74,SW,216,2.0,7.0,18,0.00,,,0.00,621.0,meteohub,2013-09-14 22:27:00,
2013-09-14 15:32:00,98.4,47.7,29.74,SE,145,1.0,7.0,18,0.00,,,0.00,601.0,meteohub,2013-09-14 22:32:00,
2013-09-14 15:37:00,98.4,49.1,29.74,SW,217,2.0,7.0,19,0.00,,,0.00,585.0,meteohub,2013-09-14 22:37:00,
2013-09-14 15:42:00,98.2,48.9,29.73,SE,126,2.0,6.0,19,0.00,,,0.00,566.0,meteohub,2013-09-14 22:42:00,
2013-09-14 15:47:00,98.2,48.9,29.73,East,92,5.0,6.0,19,0.00,,,0.00,550.0,meteohub,2013-09-14 22:47:00,
2013-09-14 15:49:00,98.1,50.2,29.73,SW,226,3.0,6.0,20,0.00,,,0.00,543.0,meteohub,2013-09-14 22:49:00,
2013-09-14 15:54:00,98.2,50.4,29.73,WSW,258,5.0,7.0,20,0.00,,,0.00,529.0,meteohub,2013-09-14 22:54:00,
2013-09-14 15:59:00,98.2,50.4,29.73,West,277,9.0,9.0,20,0.00,,,0.00,512.0,meteohub,2013-09-14 22:59:00,
2013-09-14 16:04:00,97.9,50.0,29.74,West,265,5.0,9.0,20,0.00,,,0.00,492.0,meteohub,2013-09-14 23:04:00,
2013-09-14 16:09:00,97.2,49.5,29.74,NE,44,2.0,10.0,20,0.00,,,0.00,475.0,meteohub,2013-09-14 23:09:00,
2013-09-14 16:14:00,97.2,49.5,29.74,NNE,32,2.0,10.0,20,0.00,,,0.00,457.0,meteohub,2013-09-14 23:14:00,
2013-09-14 16:19:00,97.5,49.6,29.74,WSW,238,4.0,10.0,20,0.00,,,0.00,429.0,meteohub,2013-09-14 23:19:00,
2013-09-14 16:24:00,97.3,49.6,29.74,WNW,302,5.0,6.0,20,0.00,,,0.00,422.0,meteohub,2013-09-14 23:24:00,
2013-09-14 16:29:00,97.3,50.9,29.74,SW,223,5.0,7.0,21,0.00,,,0.00,403.0,meteohub,2013-09-14 23:29:00,
2013-09-14 16:34:00,97.5,49.6,29.73,NW,311,2.0,7.0,20,0.00,,,0.00,387.0,meteohub,2013-09-14 23:34:00,
2013-09-14 16:39:00,97.3,49.6,29.74,West,276,3.0,7.0,20,0.00,,,0.00,367.0,meteohub,2013-09-14 23:39:00,
2013-09-14 16:44:00,97.2,49.5,29.74,WNW,291,1.0,7.0,20,0.00,,,0.00,350.0,meteohub,2013-09-14 23:44:00,
2013-09-14 16:49:00,97.3,48.2,29.74,WNW,303,1.0,7.0,19,0.00,,,0.00,332.0,meteohub,2013-09-14 23:49:00,
2013-09-14 16:54:00,98.1,47.3,29.74,WNW,303,0.0,7.0,18,0.00,,,0.00,316.0,meteohub,2013-09-14 23:54:00,
2013-09-14 16:59:00,98.6,49.3,29.74,SW,222,1.0,6.0,19,0.00,,,0.00,299.0,meteohub,2013-09-14 23:59:00,
2013-09-14 17:04:00,98.2,50.4,29.74,SSW,198,2.0,4.0,20,0.00,,,0.00,279.0,meteohub,2013-09-15 00:04:00,
2013-09-14 17:09:00,97.5,49.6,29.74,WSW,252,5.0,6.0,20,0.00,,,0.00,260.0,meteohub,2013-09-15 00:09:00,
2013-09-14 17:14:00,96.8,50.4,29.74,SW,220,2.0,7.0,21,0.00,,,0.00,236.0,meteohub,2013-09-15 00:14:00,
2013-09-14 17:19:00,96.6,50.4,29.74,SSW,204,2.0,7.0,21,0.00,,,0.00,211.0,meteohub,2013-09-15 00:19:00,
2013-09-14 17:24:00,96.4,50.2,29.74,SW,225,2.0,7.0,21,0.00,,,0.00,188.0,meteohub,2013-09-15 00:24:00,
2013-09-14 17:29:00,96.3,50.0,29.74,SSW,198,2.0,6.0,21,0.00,,,0.00,162.0,meteohub,2013-09-15 00:29:00,
2013-09-14 17:34:00,96.1,49.8,29.74,SW,229,1.0,5.0,21,0.00,,,0.00,141.0,meteohub,2013-09-15 00:34:00,
2013-09-14 17:39:00,95.5,49.5,29.74,SW,229,0.0,5.0,21,0.00,,,0.00,32.0,meteohub,2013-09-15 00:39:00,
2013-09-14 17:44:00,94.8,50.0,29.74,West,259,3.0,4.0,22,0.00,,,0.00,28.0,meteohub,2013-09-15 00:44:00,
2013-09-14 17:49:00,94.5,50.9,29.74,West,259,2.0,4.0,23,0.00,,,0.00,25.0,meteohub,2013-09-15 00:49:00,
2013-09-14 17:54:00,93.9,50.5,29.74,West,259,0.0,3.0,23,0.00,,,0.00,21.0,meteohub,2013-09-15 00:54:00,
2013-09-14 17:59:00,93.7,51.4,29.74,West,259,0.0,3.0,24,0.00,,,0.00,46.0,meteohub,2013-09-15 00:59:00,
2013-09-14 18:04:00,93.7,52.5,29.75,West,259,0.0,3.0,25,0.00,,,0.00,35.0,meteohub,2013-09-15 01:04:00,
2013-09-14 18:09:00,93.6,52.5,29.75,West,259,0.0,1.0,25,0.00,,,0.00,25.0,meteohub,2013-09-15 01:09:00,
2013-09-14 18:14:00,93.6,52.5,29.75,West,259,0.0,1.0,25,0.00,,,0.00,18.0,meteohub,2013-09-15 01:14:00,
2013-09-14 18:19:00,93.4,52.3,29.75,West,259,0.0,1.0,25,0.00,,,0.00,12.0,meteohub,2013-09-15 01:19:00,
2013-09-14 18:24:00,92.8,51.8,29.74,West,259,0.0,1.0,25,0.00,,,0.00,9.0,meteohub,2013-09-15 01:24:00,
2013-09-14 18:29:00,92.7,54.9,29.75,West,259,0.0,1.0,28,0.00,,,0.00,5.0,meteohub,2013-09-15 01:29:00,
2013-09-14 18:34:00,91.9,57.0,29.75,West,259,0.0,0.0,31,0.00,,,0.00,0.0,meteohub,2013-09-15 01:34:00,
2013-09-14 18:39:00,91.2,57.2,29.75,West,259,1.0,1.0,32,0.00,,,0.00,0.0,meteohub,2013-09-15 01:39:00,
2013-09-14 18:44:00,90.1,57.2,29.75,West,259,0.0,1.0,33,0.00,,,0.00,0.0,meteohub,2013-09-15 01:44:00,
2013-09-14 18:49:00,89.2,57.2,29.75,West,259,0.0,1.0,34,0.00,,,0.00,0.0,meteohub,2013-09-15 01:49:00,
2013-09-14 18:54:00,88.5,55.8,29.75,West,259,0.0,1.0,33,0.00,,,0.00,0.0,meteohub,2013-09-15 01:54:00,
2013-09-14 18:59:00,88.0,56.1,29.75,West,259,1.0,1.0,34,0.00,,,0.00,0.0,meteohub,2013-09-15 01:59:00,
2013-09-14 19:04:00,87.4,56.5,29.75,West,259,1.0,1.0,35,0.00,,,0.00,0.0,meteohub,2013-09-15 02:04:00,
2013-09-14 19:09:00,86.7,55.0,29.75,West,259,1.0,1.0,34,0.00,,,0.00,0.0,meteohub,2013-09-15 02:09:00,
2013-09-14 19:14:00,86.4,54.7,29.75,West,259,1.0,1.0,34,0.00,,,0.00,0.0,meteohub,2013-09-15 02:14:00,
2013-09-14 19:19:00,86.2,55.4,29.76,West,259,1.0,1.0,35,0.00,,,0.00,0.0,meteohub,2013-09-15 02:19:00,
2013-09-14 19:25:00,85.8,55.0,29.76,West,259,1.0,1.0,35,0.00,,,0.00,0.0,meteohub,2013-09-15 02:25:00,
2013-09-14 19:30:00,85.6,55.6,29.76,West,259,1.0,1.0,36,0.00,,,0.00,0.0,meteohub,2013-09-15 02:30:00,
2013-09-14 19:35:00,85.3,54.5,29.77,West,259,1.0,2.0,35,0.00,,,0.00,0.0,meteohub,2013-09-15 02:35:00,
2013-09-14 19:40:00,85.1,55.2,29.77,West,259,1.0,2.0,36,0.00,,,0.00,0.0,meteohub,2013-09-15 02:40:00,
2013-09-14 19:45:00,84.7,55.6,29.77,West,259,0.0,2.0,37,0.00,,,0.00,0.0,meteohub,2013-09-15 02:45:00,
2013-09-14 19:50:00,84.4,54.5,29.77,West,259,0.0,1.0,36,0.00,,,0.00,0.0,meteohub,2013-09-15 02:50:00,
2013-09-14 19:55:00,84.2,55.0,29.78,West,259,0.0,1.0,37,0.00,,,0.00,0.0,meteohub,2013-09-15 02:55:00,
2013-09-14 20:00:00,84.0,54.9,29.78,West,259,1.0,1.0,37,0.00,,,0.00,0.0,meteohub,2013-09-15 03:00:00,
2013-09-14 20:05:00,83.7,56.1,29.78,West,259,0.0,1.0,39,0.00,,,0.00,0.0,meteohub,2013-09-15 03:05:00,
2013-09-14 20:10:00,83.3,55.8,29.78,West,259,0.0,1.0,39,0.00,,,0.00,0.0,meteohub,2013-09-15 03:10:00,
2013-09-14 20:15:00,82.9,57.6,29.78,West,259,0.0,1.0,42,0.00,,,0.00,0.0,meteohub,2013-09-15 03:15:00,
2013-09-14 20:20:00,82.6,57.2,29.78,West,259,1.0,2.0,42,0.00,,,0.00,0.0,meteohub,2013-09-15 03:20:00,
2013-09-14 20:25:00,82.2,56.8,29.79,West,259,0.0,2.0,42,0.00,,,0.00,0.0,meteohub,2013-09-15 03:25:00,
2013-09-14 20:30:00,82.0,56.7,29.79,West,259,0.0,3.0,42,0.00,,,0.00,0.0,meteohub,2013-09-15 03:30:00,
2013-09-14 20:35:00,81.9,55.2,29.79,South,176,2.0,3.0,40,0.00,,,0.00,0.0,meteohub,2013-09-15 03:35:00,
2013-09-14 20:40:00,81.9,55.9,29.79,SSE,168,1.0,2.0,41,0.00,,,0.00,0.0,meteohub,2013-09-15 03:40:00,
2013-09-14 20:45:00,81.9,55.2,29.79,East,81,2.0,2.0,40,0.00,,,0.00,0.0,meteohub,2013-09-15 03:45:00,
2013-09-14 20:50:00,81.7,55.0,29.79,East,81,1.0,2.0,40,0.00,,,0.00,0.0,meteohub,2013-09-15 03:50:00,
2013-09-14 20:55:00,81.7,54.3,29.79,ENE,78,2.0,2.0,39,0.00,,,0.00,0.0,meteohub,2013-09-15 03:55:00,
2013-09-14 21:00:00,82.0,54.7,29.79,ENE,78,0.0,3.0,39,0.00,,,0.00,0.0,meteohub,2013-09-15 04:00:00,
2013-09-14 21:01:00,82.0,54.7,29.79,ENE,78,0.0,3.0,39,0.00,,,0.00,0.0,meteohub,2013-09-15 04:01:00,
2013-09-14 21:02:00,82.0,55.4,29.79,ENE,78,1.0,3.0,40,0.00,,,0.00,0.0,meteohub,2013-09-15 04:02:00,
2013-09-14 21:03:00,82.0,54.7,29.79,ENE,78,2.0,3.0,39,0.00,,,0.00,0.0,meteohub,2013-09-15 04:03:00,
2013-09-14 21:04:00,82.0,54.7,29.79,ENE,78,0.0,3.0,39,0.00,,,0.00,0.0,meteohub,2013-09-15 04:04:00,
2013-09-14 21:09:00,82.2,54.9,29.79,ENE,78,1.0,2.0,39,0.00,,,0.00,0.0,meteohub,2013-09-15 04:09:00,
2013-09-14 21:14:00,82.4,52.0,29.79,ESE,103,2.0,3.0,35,0.00,,,0.00,0.0,meteohub,2013-09-15 04:14:00,
2013-09-14 21:19:00,83.1,51.8,29.79,ESE,104,2.0,6.0,34,0.00,,,0.00,0.0,meteohub,2013-09-15 04:19:00,
2013-09-14 21:24:00,83.8,51.6,29.79,ESE,104,2.0,6.0,33,0.00,,,0.00,0.0,meteohub,2013-09-15 04:24:00,
2013-09-14 21:29:00,84.6,51.4,29.79,ESE,104,1.0,6.0,32,0.00,,,0.00,0.0,meteohub,2013-09-15 04:29:00,
2013-09-14 21:34:00,84.6,53.1,29.80,ESE,106,0.0,3.0,34,0.00,,,0.00,0.0,meteohub,2013-09-15 04:34:00,
2013-09-14 21:39:00,84.4,52.9,29.80,ESE,106,1.0,3.0,34,0.00,,,0.00,0.0,meteohub,2013-09-15 04:39:00,
2013-09-14 21:44:00,84.0,54.1,29.80,ESE,106,0.0,3.0,36,0.00,,,0.00,0.0,meteohub,2013-09-15 04:44:00,
2013-09-14 21:49:00,83.7,54.7,29.80,ESE,113,2.0,3.0,37,0.00,,,0.00,0.0,meteohub,2013-09-15 04:49:00,
2013-09-14 21:54:00,83.3,54.3,29.80,ESE,110,2.0,4.0,37,0.00,,,0.00,0.0,meteohub,2013-09-15 04:54:00,
2013-09-14 21:59:00,83.1,54.1,29.80,ESE,111,1.0,4.0,37,0.00,,,0.00,0.0,meteohub,2013-09-15 04:59:00,
2013-09-14 22:04:00,82.6,55.0,29.80,ESE,111,0.0,4.0,39,0.00,,,0.00,0.0,meteohub,2013-09-15 05:04:00,
2013-09-14 22:09:00,82.0,55.4,29.80,ESE,111,0.0,4.0,40,0.00,,,0.00,0.0,meteohub,2013-09-15 05:09:00,
2013-09-14 22:14:00,81.7,55.8,29.81,ESE,111,0.0,2.0,41,0.00,,,0.00,0.0,meteohub,2013-09-15 05:14:00,
2013-09-14 22:19:00,81.1,55.9,29.81,ESE,111,1.0,2.0,42,0.00,,,0.00,0.0,meteohub,2013-09-15 05:19:00,
2013-09-14 22:24:00,80.6,55.4,29.81,ESE,111,0.0,2.0,42,0.00,,,0.00,0.0,meteohub,2013-09-15 05:24:00,
2013-09-14 22:29:00,80.2,55.8,29.81,ESE,111,0.0,1.0,43,0.00,,,0.00,0.0,meteohub,2013-09-15 05:29:00,
2013-09-14 22:34:00,79.9,56.7,29.81,ESE,111,0.0,1.0,45,0.00,,,0.00,0.0,meteohub,2013-09-15 05:34:00,
2013-09-14 22:39:00,79.5,56.8,29.81,ESE,111,1.0,1.0,46,0.00,,,0.00,0.0,meteohub,2013-09-15 05:39:00,
2013-09-14 22:44:00,79.2,56.7,29.81,ESE,111,0.0,1.0,46,0.00,,,0.00,0.0,meteohub,2013-09-15 05:44:00,
2013-09-14 22:49:00,78.6,57.9,29.81,ESE,111,0.0,2.0,49,0.00,,,0.00,0.0,meteohub,2013-09-15 05:49:00,
2013-09-14 22:54:00,78.4,56.5,29.81,ESE,111,0.0,2.0,47,0.00,,,0.00,0.0,meteohub,2013-09-15 05:54:00,
2013-09-14 22:59:00,78.3,57.6,29.81,ESE,111,1.0,2.0,49,0.00,,,0.00,0.0,meteohub,2013-09-15 05:59:00,
2013-09-14 23:05:00,78.3,58.6,29.81,ESE,111,0.0,2.0,51,0.00,,,0.00,0.0,meteohub,2013-09-15 06:05:00,
2013-09-14 23:10:00,77.9,58.3,29.80,ESE,111,0.0,2.0,51,0.00,,,0.00,0.0,meteohub,2013-09-15 06:10:00,
2013-09-14 23:15:00,77.7,59.2,29.80,ESE,111,0.0,2.0,53,0.00,,,0.00,0.0,meteohub,2013-09-15 06:15:00,
2013-09-14 23:20:00,77.4,58.3,29.80,ESE,111,0.0,2.0,52,0.00,,,0.00,0.0,meteohub,2013-09-15 06:20:00,
2013-09-14 23:25:00,77.2,59.2,29.80,ESE,111,0.0,2.0,54,0.00,,,0.00,0.0,meteohub,2013-09-15 06:25:00,
2013-09-14 23:30:00,76.8,57.9,29.81,ESE,111,1.0,1.0,52,0.00,,,0.00,0.0,meteohub,2013-09-15 06:30:00,
2013-09-14 23:35:00,76.6,57.7,29.81,ESE,111,0.0,1.0,52,0.00,,,0.00,0.0,meteohub,2013-09-15 06:35:00,
2013-09-14 23:40:00,76.6,58.3,29.81,ESE,111,0.0,1.0,53,0.00,,,0.00,0.0,meteohub,2013-09-15 06:40:00,
2013-09-14 23:45:00,76.6,58.3,29.81,ESE,111,1.0,1.0,53,0.00,,,0.00,0.0,meteohub,2013-09-15 06:45:00,
2013-09-14 23:50:00,76.5,58.1,29.81,ESE,111,1.0,2.0,53,0.00,,,0.00,0.0,meteohub,2013-09-15 06:50:00,
2013-09-14 23:55:00,76.8,57.4,29.81,ESE,111,0.0,2.0,51,0.00,,,0.00,0.0,meteohub,2013-09-15 06:55:00,